• Join FlightAware (Why Join?)
  • Login
  • US Flag 
04:07AM EDT


 

Airport Tracker/Info


-or-


 

Live Flight TrackerFlight Track Log ✈ FDX1703 ✈ 27-Aug-2013 ✈ KIND - KATL

Flight Track Log - Related Links

Times and Time Zones

All times are in EDT time to prevent confusion due to time zone crossing. See the FDX1703 flight status page for this flight to view local times or setup timezone preferences in your user account.

Time Position Orientation Groundspeed Altitude Reporting Facility
EDT Latitude Longitude Course Direction KTS MPH feet Rate Location/Type
03:33AM 39.7130 -86.2880 43° Northeast 120 138  Level FlightAware
03:33AM 39.7010 -86.3030 224° Southwest 163 188 1,000 2,520 Climbing FlightAware
03:34AM 39.6920 -86.3140 223° Southwest 145 167 1,800 1,920 Climbing FlightAware
03:34AM 39.6860 -86.3180 207° Southwest 162 186 1,900 900 Climbing FlightAware
03:34AM 39.6720 -86.3250 201° Southwest 188 216 2,200 1,320 Climbing FlightAware
03:35AM 39.6530 -86.3350 202° Southwest 206 237 2,800 1,380 Climbing FlightAware
03:35AM 39.6310 -86.3450 199° South 238 274 3,300 1,440 Climbing FlightAware
03:35AM 39.6110 -86.3460 182° South 257 296 3,800 1,860 Climbing FlightAware
03:36AM 39.5840 -86.3450 178° South 275 316 4,500 2,160 Climbing FlightAware
03:36AM 39.5640 -86.3440 178° South 282 325 5,100 2,640 Climbing FlightAware
03:36AM 39.5380 -86.3420 177° South 285 328 6,100 2,880 Climbing FlightAware
03:37AM 39.5070 -86.3380 174° South 286 329 7,200 2,820 Climbing FlightAware
03:37AM 39.4870 -86.3360 176° South 288 331 7,900 2,400 Climbing FlightAware
03:37AM 39.4600 -86.3320 173° South 292 336 8,700 2,340 Climbing FlightAware
03:37AM 39.4430 -86.3300 175° South 293 337 9,200 2,340 Climbing FlightAware
03:38AM 39.4000 -86.3200 170° South 305 351 10,400 1,740 Climbing FlightAware
03:39AM 39.3430 -86.3000 165° South 340 391 11,300 1,260 Climbing FlightAware
03:39AM 39.2850 -86.2800 165° South 368 423 12,000 1,560 Climbing FlightAware
03:40AM 39.2340 -86.2620 165° South 377 434 13,100 1,860 Climbing FlightAware
03:40AM 39.1720 -86.2400 165° South 388 447 14,100 1,620 Climbing FlightAware
03:41AM 39.1070 -86.2170 165° South 404 465 15,100 1,380 Climbing FlightAware
03:41AM 39.0460 -86.1950 164° South 417 480 15,800 1,560 Climbing FlightAware
03:42AM 38.9770 -86.1710 165° South 423 487 16,900 1,080 Climbing FlightAware
03:43AM 38.9140 -86.1480 164° South 424 488 17,200 1,560 Climbing FlightAware
03:43AM 38.8400 -86.1230 165° South 436 502 18,800 2,040 Climbing FlightAware
03:44AM 38.7580 -86.0940 165° South 444 511 19,800 720 Climbing FlightAware
03:45AM 38.6950 -86.0720 165° South 444 511 19,800 1,500 Level FlightAware
03:45AM 38.6170 -86.0450 165° South 456 525 21,500 2,100 Climbing FlightAware
03:46AM 38.5460 -86.0200 165° South 461 531 22,200 1,320 Climbing FlightAware
03:46AM 38.4730 -85.9950 165° South 465 535 23,100 1,380 Climbing FlightAware
03:47AM 38.3970 -85.9690 165° South 471 542 23,900 1,320 Climbing FlightAware
03:47AM 38.3290 -85.9460 165° South 474 545 24,600 1,200 Climbing FlightAware
03:48AM 38.2520 -85.9190 165° South 479 551 25,300 1,080 Climbing FlightAware
03:49AM 38.1750 -85.8930 165° South 485 558 25,900 1,080 Climbing FlightAware
03:49AM 38.1000 -85.8670 165° South 489 563 26,600 1,080 Climbing FlightAware
03:50AM 38.0210 -85.8400 165° South 493 567 27,200 900 Climbing FlightAware
03:50AM 37.9390 -85.8120 165° South 499 574 27,700 960 Climbing FlightAware
03:51AM 37.8680 -85.7880 165° South 502 578 28,300 840 Climbing FlightAware
03:52AM 37.7870 -85.7600 165° South 508 585 28,700 900 Climbing FlightAware
03:52AM 37.7030 -85.7320 165° South 510 587 29,400 960 Climbing FlightAware
03:53AM 37.6230 -85.7050 165° South 512 589 29,900 780 Climbing FlightAware
03:53AM 37.5470 -85.6790 165° South 516 594 30,300 780 Climbing FlightAware
03:54AM 37.4660 -85.6520 165° South 519 597 30,800 900 Climbing FlightAware
03:54AM 37.4292 -85.6399 165° South 518 596 31,100 1,020 Climbing FlightAware ADS-B
03:55AM 37.3420 -85.6103 165° South 517 595 31,700 960 Climbing FlightAware ADS-B
03:55AM 37.2435 -85.5770 165° South 516 594 32,400 840 Climbing FlightAware ADS-B
03:56AM 37.1346 -85.5408 165° South 516 594 33,000 420 Climbing FlightAware ADS-B
03:57AM 37.0638 -85.5178 165° South 518 596 33,000  Level FlightAware ADS-B
03:57AM 36.9932 -85.4941 165° South 517 595 33,000  Level FlightAware ADS-B
03:58AM 36.8820 -85.4575 165° South 515 593 33,000  Level FlightAware ADS-B
03:59AM 36.8093 -85.4331 165° South 512 589 33,000  Level FlightAware ADS-B
03:59AM 36.7404 -85.4104 165° South 511 588 33,000  Level FlightAware ADS-B
04:00AM 36.6650 -85.3855 165° South 511 588 33,000  Level FlightAware ADS-B
04:00AM 36.5950 -85.3630 166° South 511 588 33,000  Level FlightAware ADS-B
04:01AM 36.5259 -85.3397 165° South 512 589 33,000  Level FlightAware ADS-B
04:01AM 36.4462 -85.3142 166° South 514 592 33,000  Level FlightAware ADS-B
04:02AM 36.3389 -85.2791 165° South 513 590 33,000  Level FlightAware ADS-B
04:03AM 36.2700 -85.2568 165° South 507 583 33,000  Level FlightAware ADS-B
04:03AM 36.1828 -85.2278 165° South 507 583 33,000  Level FlightAware ADS-B
04:04AM 36.1115 -85.2050 166° South 506 582 33,000  Level FlightAware ADS-B
04:04AM 36.0429 -85.1830 165° South 506 582 33,000  Level FlightAware ADS-B
04:05AM 35.9725 -85.1604 165° South 505 581 33,000  Level FlightAware ADS-B
04:05AM 35.9041 -85.1380 165° South 503 579 33,000  Level FlightAware ADS-B
04:06AM 35.8340 -85.1150 165° South 504 580 33,000  Level FlightAware
04:06AM 35.7818 -85.0986 166° South 504 580 33,000  Level FlightAware ADS-B
04:07AM 35.7135 -85.0769 166° South 504 580 33,000  Level FlightAware ADS-B
04:07AM 35.6451 -85.0552 166° South 504 580 33,000  Level FlightAware ADS-B
04:08AM 35.5771 -85.0336 166° South 504 580 33,000  Level FlightAware ADS-B
04:08AM 35.5083 -85.0112 165° South 505 581 33,000  Level FlightAware ADS-B
04:09AM 35.4400 -84.9895 165° South 504 580 33,000 -120 Level FlightAware ADS-B
04:09AM 35.3718 -84.9679 166° South 502 578 32,900 -120 Descending FlightAware ADS-B
04:10AM 35.3037 -84.9463 165° South 504 580 32,900 -720 Level FlightAware ADS-B
04:10AM 35.2359 -84.9247 165° South 503 579 32,200 -2,400 Descending FlightAware ADS-B
04:11AM 35.1519 -84.8981 165° South 504 580 30,200 -3,000 Descending FlightAware ADS-B
04:11AM 35.0831 -84.8763 165° South 496 571 28,900 -2,400 Descending FlightAware ADS-B
04:12AM 35.0171 -84.8555 166° South 483 556 27,800 -2,220 Descending FlightAware ADS-B
04:12AM 34.9519 -84.8344 165° South 471 542 26,700 -2,220 Descending FlightAware ADS-B
04:13AM 34.8671 -84.8083 166° South 462 532 25,200 -2,160 Descending FlightAware ADS-B
04:13AM 34.8054 -84.7894 166° South 450 518 24,200 -1,920 Descending FlightAware ADS-B
04:14AM 34.7443 -84.7702 166° South 457 526 23,300 -1,740 Descending FlightAware ADS-B
04:14AM 34.6792 -84.7503 166° South 484 557 22,500 -1,980 Descending FlightAware ADS-B
04:15AM 34.6131 -84.7294 165° South 480 552 21,300 -2,400 Descending FlightAware ADS-B
04:15AM 34.5492 -84.7092 165° South 467 537 20,100 -2,400 Descending FlightAware ADS-B
04:16AM 34.4867 -84.6897 166° South 455 524 18,900 -2,400 Descending FlightAware ADS-B
04:16AM 34.4236 -84.6703 166° South 444 511 17,700 -2,400 Descending FlightAware ADS-B
04:17AM 34.3469 -84.6463 166° South 439 505 16,100 -2,520 Descending FlightAware ADS-B
04:17AM 34.3152 -84.6363 165° South 424 488 15,400 -2,340 Descending FlightAware ADS-B
04:18AM 34.2978 -84.6333 172° South 423 487 15,100 -1,080 Descending FlightAware ADS-B
04:18AM 34.2383 -84.6345 181° South 418 481 14,700 -1,200 Descending FlightAware ADS-B
04:19AM 34.1794 -84.6363 181° South 391 450 13,900 -2,160 Descending FlightAware ADS-B
04:19AM 34.1190 -84.6370 181° South 364 419 12,300 -2,940 Descending FlightAware
04:19AM 34.1013 -84.6378 182° South 368 423 11,700 -1,980 Descending FlightAware ADS-B
04:20AM 34.0130 -84.6410 182° South 302 348 10,100 -1,740 Descending FlightAware
04:21AM 33.9910 -84.6410 180° South 292 336 9,600 -1,500 Descending FlightAware
04:21AM 33.9650 -84.6420 182° South 275 316 9,200 -1,200 Descending FlightAware
04:21AM 33.9400 -84.6430 182° South 259 298 8,800 -1,200 Descending FlightAware
04:22AM 33.9170 -84.6430 180° South 247 284 8,400 -1,620 Descending FlightAware
04:22AM 33.8890 -84.6440 182° South 246 283 7,600 -2,040 Descending FlightAware
04:22AM 33.8800 -84.6450 185° South 246 283 7,300 -1,860 Descending FlightAware
04:23AM 33.8510 -84.6460 182° South 238 274 6,600 -1,560 Descending FlightAware
04:23AM 33.8150 -84.6470 181° South 222 255 5,800 -1,560 Descending FlightAware
04:24AM 33.7900 -84.6490 184° South 226 260 5,100 -1,680 Descending FlightAware
04:24AM 33.7730 -84.6510 186° South 227 261 4,700 -1,500 Descending FlightAware
04:24AM 33.7480 -84.6540 186° South 227 261 4,100 -1,380 Descending FlightAware
04:24AM 33.7320 -84.6550 183° South 223 257 3,800 -540 Descending FlightAware
04:25AM 33.7110 -84.6570 185° South 222 255 3,800  Level FlightAware
04:25AM 33.6980 -84.6580 184° South 223 257 3,800  Level FlightAware
04:25AM 33.6830 -84.6580 180° South 223 257 3,800  Level FlightAware
04:25AM 33.6750 -84.6550 163° South 219 252 3,800  Level FlightAware
04:25AM 33.6720 -84.6530 151° Southeast 213 245 3,800  Level FlightAware
04:26AM 33.6670 -84.6450 127° Southeast 198 228 3,800 -240 Level FlightAware
04:26AM 33.6580 -84.6270 121° Southeast 186 214 3,700 -600 Descending FlightAware
04:26AM 33.6480 -84.6040 118° Southeast 182 209 3,400 -1,020 Descending FlightAware
04:27AM 33.6460 -84.5940 104° East 180 207 3,100 -1,080 Descending FlightAware
04:27AM 33.6470 -84.5650 88° East 185 213 2,700 -780 Descending FlightAware
04:27AM 33.6470 -84.5450 90° East 187 215 2,500 -840 Descending FlightAware
04:28AM 33.6470 -84.5150 90° East 168 193 2,000 -840 Descending FlightAware
04:28AM 33.6470 -84.4830 90° East 151 174 1,600 -780 Descending FlightAware
04:29AM 33.6470 -84.4670 90° East 153 176 1,300 -780 Descending FlightAware
04:29AM 33.6470 -84.4550 90° East 154 177 1,200 -840 Descending FlightAware
04:29AM 33.6470 -84.4360 90° East 153 176 800 -1,020 Descending FlightAware